Theta_e
330 329 330 333 338 337 339 338 338 340 340 335 330 332 335 335 337 347 335 337 335 327 333 336 332 329 335 338 336 334 333 331 330 329 329 328 328 329 329 328 328 328 329 328 327 327 328 328 328
329 328 330 334 335 338 336 336 339 339 340 335 328 335 336 340 337 336 337 338 335 327 333 335 328 327 335 337 336 335 334 331 330 329 329 328 328 329 328 328 328 328 327 327 327 327 327 326 324
329 327 332 333 334 334 335 335 336 341 340 336 336 337 340 341 336 337 336 337 330 327 332 334 335 327 333 334 336 335 334 331 330 330 329 329 328 328 328 328 327 328 328 327 327 327 326 325 323
328 329 331 334 334 333 333 334 336 341 340 340 339 339 336 334 335 335 336 335 327 331 334 336 334 331 328 333 335 336 334 331 330 330 330 329 329 329 329 328 328 328 328 328 328 328 327 324 324
327 329 333 333 331 331 333 332 334 339 340 340 340 342 340 333 334 335 336 331 330 333 334 335 332 332 333 328 334 336 334 331 330 330 330 329 329 328 328 327 327 327 327 327 326 325 325 326 326
331 329 333 333 332 330 331 331 333 336 338 340 341 340 339 334 335 335 334 330 331 332 334 336 335 335 336 332 334 337 334 329 328 329 328 328 326 326 325 323 322 323 324 325 326 326 327 327 327
331 331 332 331 330 330 331 331 333 335 336 340 340 342 338 334 335 335 331 332 331 331 334 337 338 338 336 334 334 336 334 328 329 328 329 328 322 323 322 321 322 323 324 326 327 327 327 327 327
330 331 332 331 332 332 330 332 333 336 337 338 338 341 342 333 334 333 331 331 331 330 333 337 337 338 337 333 335 335 334 329 326 328 328 325 320 321 320 319 321 324 326 327 327 328 329 328 326
328 334 334 331 331 330 329 332 333 335 338 339 338 338 336 332 333 333 332 331 330 329 331 336 338 337 337 336 336 335 331 324 323 324 321 319 324 322 319 324 323 326 327 327 328 329 328 326 325
332 334 333 330 329 329 329 331 331 337 337 339 340 337 333 333 333 333 332 331 329 329 329 332 337 337 336 334 334 329 326 325 324 324 320 324 323 323 325 324 326 327 327 328 328 326 325 324 321
330 334 331 331 330 329 329 330 329 333 335 337 338 339 334 334 332 332 331 330 330 329 329 328 331 333 333 331 329 326 325 324 324 325 324 323 324 325 327 328 328 328 329 330 328 326 323 319 318
326 326 329 330 330 329 329 329 329 329 331 333 335 336 335 334 333 332 331 330 330 330 331 329 328 328 328 327 325 325 324 325 325 326 325 325 326 327 328 328 329 329 328 327 326 324 317 315 314
320 324 325 326 328 330 329 329 328 328 328 328 332 335 336 334 333 332 331 330 330 329 330 330 329 328 326 326 325 324 323 324 325 326 325 325 326 328 328 328 328 326 323 323 323 318 313 313 314
317 319 323 325 327 327 330 330 329 328 327 327 328 333 336 335 334 333 331 330 329 330 329 329 329 328 326 324 322 321 322 324 326 326 325 325 326 327 327 327 324 323 322 321 316 312 310 312 313
315 317 316 320 324 327 327 331 332 329 327 327 327 330 333 335 334 334 332 331 330 329 329 329 329 327 325 323 321 321 323 326 326 326 326 325 326 328 327 324 322 322 320 318 315 308 308 312 311
312 313 318 314 315 322 327 331 326 328 329 328 327 329 331 334 334 333 332 331 330 328 328 328 328 327 325 323 322 323 325 326 326 326 326 327 326 325 324 322 321 320 317 311 308 306 307 310 310
310 311 312 313 315 316 321 326 325 325 328 329 328 327 330 333 334 334 332 331 330 329 328 327 327 327 326 323 322 324 325 326 324 324 325 323 323 323 322 321 320 315 310 307 303 303 306 309 305
310 312 313 313 311 315 320 322 321 322 325 327 329 328 328 333 333 333 332 331 329 328 326 326 326 328 326 322 323 324 322 319 321 322 320 321 322 321 321 318 313 307 305 303 301 300 306 304 300
305 306 308 310 311 314 316 318 321 322 323 324 327 328 329 331 332 332 330 329 328 328 327 326 327 329 326 321 323 319 317 314 318 319 319 318 316 316 315 311 306 302 301 301 299 301 304 302 298
309 308 307 307 308 312 313 316 316 318 320 322 324 327 328 330 333 332 330 328 328 328 327 326 328 329 326 323 320 318 315 312 314 315 314 314 313 312 310 306 302 299 300 300 300 299 296 297 300
310 310 310 308 307 307 311 314 313 313 315 318 321 322 326 329 333 332 330 329 329 329 328 329 329 328 326 322 321 315 315 308 308 309 309 306 306 305 302 300 301 304 305 304 299 295 296 294 295
311 309 309 309 308 310 308 316 314 315 314 315 320 321 323 326 329 333 330 329 330 329 329 329 329 327 326 323 319 319 316 309 307 304 302 299 298 298 299 303 305 303 299 294 291 292 295 297 297
310 308 308 308 309 309 308 310 310 314 313 314 316 321 321 323 328 332 330 329 330 329 329 328 328 327 325 321 318 319 316 310 302 300 299 297 297 300 302 301 298 294 291 290 290 290 290 291 291
309 310 311 310 312 315 310 309 309 310 312 316 316 316 321 321 325 332 328 330 329 329 329 329 328 327 324 320 317 317 315 308 302 298 297 297 299 299 298 295 293 291 290 289 288 288 288 288 288
310 312 313 313 315 314 308 310 309 309 311 312 313 316 317 321 325 331 330 328 328 328 329 329 328 325 322 318 315 315 312 306 302 297 296 298 296 297 294 293 292 289 288 288 287 286 286 285 285
311 313 313 313 311 314 311 319 312 315 318 320 319 319 318 322 327 332 329 328 326 326 323 323 321 318 316 314 313 312 307 302 298 297 299 297 294 293 292 291 288 287 286 286 285 285 284 284 284
312 312 311 316 314 315 313 312 312 316 319 318 317 318 319 321 328 330 325 323 321 318 317 315 312 311 310 309 307 302 300 298 297 298 296 295 294 290 288 287 286 285 285 285 284 284 283 283 283
312 310 315 316 319 316 317 318 316 318 316 315 315 315 317 320 326 326 322 318 315 312 309 310 309 305 303 302 300 298 297 297 297 296 294 291 289 289 287 286 285 284 284 283 283 283 282 282 282
312 313 313 314 314 316 321 319 316 314 311 312 312 312 313 321 327 321 316 312 308 306 305 302 302 300 298 297 295 295 295 294 295 294 292 291 288 286 286 285 284 283 283 283 283 282 281 281 280
311 312 311 315 315 316 317 316 314 312 309 308 308 309 309 316 311 306 303 302 302 300 299 298 296 295 295 295 294 294 293 295 293 291 289 288 286 286 284 283 283 283 282 282 282 281 281 281 280
Wind_Speed
15 9 5 5 6 6 13 9 11 3 4 4 8 4 2 6 2 2 13 11 20 22 22 21 20 21 21 19 17 16 14 13 13 13 13 12 11 10 10 11 10 10 10 10 10 10 10 9 10
13 9 5 4 7 11 11 11 7 8 6 5 6 3 4 4 6 11 14 13 21 21 21 20 21 22 22 20 19 17 15 14 14 13 12 12 11 10 10 10 10 10 9 10 9 9 9 9 9
11 7 4 5 11 13 10 3 10 6 4 6 4 6 2 4 5 15 8 21 22 20 19 19 22 22 24 21 20 19 16 14 14 14 13 12 11 10 9 10 10 9 10 10 11 11 10 10 9
6 6 4 8 15 13 18 2 11 5 5 5 6 5 3 5 8 10 20 24 21 20 18 18 21 21 22 22 21 20 18 14 15 14 13 12 10 10 9 9 9 10 10 10 10 9 9 9 8
9 4 10 13 19 18 6 13 8 10 10 8 7 6 2 4 6 14 23 23 22 19 18 16 19 20 21 23 21 22 18 14 16 15 14 12 10 10 10 9 9 9 9 9 8 8 8 8 8
7 5 10 14 17 17 12 13 9 10 12 5 6 8 4 7 12 18 21 21 20 19 17 15 15 18 22 24 22 23 19 13 16 15 13 12 9 10 10 9 9 9 8 7 7 7 6 7 7
12 10 15 18 17 16 9 5 11 11 14 11 5 9 5 10 14 20 21 19 19 18 16 13 13 15 22 23 22 23 18 15 16 15 15 14 11 11 10 10 9 8 7 6 5 5 5 6 6
8 11 19 17 16 20 15 5 6 10 14 3 1 6 6 15 19 21 20 19 18 19 18 14 16 17 19 20 22 22 17 15 15 16 14 12 11 11 10 9 8 7 6 4 4 6 6 6 9
8 10 16 21 18 16 10 10 9 2 8 3 6 4 5 21 21 22 22 20 18 20 20 18 17 20 20 23 24 20 15 14 14 13 12 11 8 9 10 8 7 6 4 4 5 6 8 8 9
11 13 23 19 17 18 16 13 12 6 11 14 10 5 4 20 24 25 25 24 21 20 22 21 18 19 21 18 20 13 13 12 12 12 14 10 10 10 9 8 6 4 4 5 6 9 10 8 5
12 20 18 17 17 14 18 14 13 11 14 12 16 13 13 20 22 23 25 25 24 22 22 22 20 18 17 16 15 12 12 12 12 12 12 11 11 9 8 6 5 3 4 3 5 6 7 8 7
21 18 16 20 20 14 20 17 18 14 15 5 5 8 17 19 19 26 25 25 25 26 22 23 22 20 18 15 16 14 13 13 12 12 12 11 10 9 9 8 7 5 3 4 4 4 6 7 8
20 17 19 18 20 20 19 22 19 19 13 11 7 8 18 18 23 26 25 23 24 26 24 22 22 21 19 17 16 15 15 14 13 13 12 10 10 9 9 7 5 5 3 1 3 3 4 6 8
13 15 16 14 18 21 22 24 23 24 20 18 11 12 16 20 25 24 27 26 26 26 27 25 22 20 19 17 16 15 15 15 14 13 12 11 10 10 9 7 5 4 1 0 1 3 4 5 7
15 19 20 20 16 21 18 26 29 22 22 21 14 14 16 19 24 29 28 28 28 28 26 27 23 21 19 17 16 15 14 14 15 14 13 12 10 10 8 8 5 4 3 2 2 4 5 6 8
17 18 18 15 24 21 16 34 22 22 25 24 23 16 15 19 22 27 25 26 27 27 27 27 25 23 20 17 16 15 14 14 13 13 13 11 13 11 10 8 7 6 4 3 3 4 5 7 7
11 13 17 17 19 17 26 33 21 19 18 26 24 21 17 16 20 26 28 27 26 28 28 28 29 25 23 19 17 15 16 13 10 10 10 10 12 11 11 10 8 5 3 4 5 5 6 9 10
11 13 16 17 16 19 20 27 24 24 21 24 23 21 21 18 20 25 27 26 26 27 26 28 29 25 25 21 19 21 17 12 16 16 14 11 12 13 13 10 8 6 6 6 6 7 13 13 12
16 18 22 19 19 20 21 23 19 20 18 16 22 23 23 19 18 25 25 26 26 28 28 29 30 28 27 25 23 17 16 15 16 18 18 16 13 13 12 9 6 6 8 9 9 12 13 13 12
15 18 20 19 18 21 24 28 25 24 26 19 18 23 22 18 18 18 27 28 29 29 29 29 31 29 29 25 22 16 19 13 15 16 15 14 13 12 12 11 10 11 12 11 8 5 6 7 7
15 16 18 21 18 22 22 32 29 27 28 25 22 22 21 19 19 19 20 30 32 32 33 34 34 31 30 26 24 21 21 16 15 15 14 13 13 13 12 13 14 13 10 7 5 5 4 8 7
16 15 15 17 15 12 11 12 16 16 26 29 25 23 23 21 16 17 19 25 30 32 31 32 34 33 31 30 31 32 25 19 13 19 17 14 14 14 15 15 13 10 9 8 9 10 10 6 7
13 12 14 16 16 17 19 13 7 18 26 24 26 24 25 24 22 17 19 28 32 32 32 33 34 33 31 32 31 32 20 19 23 22 22 19 18 18 18 16 15 14 14 13 12 12 14 13 12
13 14 16 16 13 14 16 16 17 17 21 17 17 25 21 24 25 20 26 29 30 31 31 32 35 32 32 33 28 30 31 29 29 27 26 24 23 20 18 18 18 16 14 13 12 13 15 16 15
9 10 5 4 6 10 12 14 24 13 20 23 24 22 23 22 23 22 21 19 27 30 31 32 33 29 31 29 26 28 32 31 30 31 32 30 24 24 22 20 19 16 13 13 12 14 15 15 15
17 5 4 8 8 12 18 8 13 11 9 12 13 19 16 21 20 20 21 22 29 30 28 30 33 32 29 30 31 31 29 29 29 33 33 29 27 27 22 22 18 16 14 14 13 15 16 15 15
0 5 2 7 18 12 8 15 22 19 7 9 13 15 18 17 19 17 20 25 29 27 27 27 27 30 30 28 27 25 26 30 35 34 30 30 29 25 23 20 18 16 15 13 13 14 15 13 13
7 5 5 3 5 8 8 14 12 10 15 18 17 16 16 20 18 17 15 20 24 26 29 31 28 26 25 25 27 30 31 35 35 33 34 31 28 25 21 17 16 16 15 14 14 14 13 12 11
4 2 4 5 5 5 7 6 6 15 17 20 20 20 17 20 12 13 11 14 16 28 34 28 32 32 31 31 33 35 36 36 36 37 32 29 26 23 22 18 16 16 15 13 13 12 11 10 9
4 6 8 5 6 7 9 10 9 13 17 14 17 12 9 2 11 13 13 17 17 21 30 31 34 36 35 34 34 38 37 41 40 34 30 27 25 21 20 18 16 15 14 12 11 10 9 8 8
Wind_Direction
339 331 292 249 240 232 250 232 271 198 212 135 149 201 216 2 333 15 143 150 153 157 162 164 169 166 167 169 163 155 150 145 144 141 137 130 125 116 111 103 99 96 93 87 85 79 80 77 70
325 322 243 265 245 234 233 240 202 230 64 152 150 182 208 98 82 125 139 163 157 157 163 167 168 170 168 167 168 160 155 149 147 144 140 134 130 118 112 106 103 95 92 86 83 83 78 77 75
309 285 256 228 235 244 250 160 249 83 133 177 191 301 19 82 106 148 140 156 157 158 163 170 172 173 175 172 172 162 163 153 149 147 143 140 134 125 118 113 108 100 93 88 82 78 77 76 72
302 208 230 241 244 239 272 2 309 144 179 241 249 211 101 29 146 154 152 153 157 159 163 176 176 177 179 177 173 168 169 156 152 150 147 143 140 134 127 119 112 102 97 90 84 80 76 72 64
248 248 256 231 244 253 248 276 280 253 232 214 222 243 115 134 132 145 155 158 158 162 163 175 183 186 184 181 176 172 171 159 156 156 151 150 144 136 129 123 116 109 102 94 87 81 73 62 52
251 264 237 246 240 241 241 271 268 255 253 223 229 253 110 139 153 157 158 161 161 161 162 169 186 196 190 183 179 175 174 165 155 158 154 154 154 143 137 132 126 116 106 96 85 74 61 44 34
244 235 246 247 250 250 252 266 258 257 249 225 260 237 100 167 157 161 162 162 166 164 163 164 168 173 179 180 179 177 174 163 161 163 161 169 158 152 146 140 131 121 111 99 78 57 43 40 31
260 248 254 251 248 243 240 216 240 262 259 70 195 250 216 168 160 164 166 166 173 170 169 163 159 159 161 173 177 174 172 170 171 174 175 169 162 157 151 142 138 129 117 93 61 48 38 19 10
247 240 239 240 240 254 243 236 207 317 256 209 193 291 24 149 162 171 173 170 179 177 176 169 164 163 159 169 171 171 172 175 175 173 171 161 154 145 142 165 148 129 110 76 50 36 24 24 10
221 231 242 243 246 253 255 226 238 215 220 226 218 189 153 151 171 178 183 180 178 189 179 179 174 168 167 163 170 164 164 168 169 167 167 166 169 166 170 162 146 126 97 73 55 36 34 27 24
240 247 256 255 261 246 264 240 243 233 242 228 234 201 166 166 183 194 191 191 183 189 183 181 182 181 170 165 168 170 175 176 181 178 173 176 172 174 167 166 156 135 79 91 49 26 25 29 42
251 253 265 265 271 253 257 258 255 246 255 354 256 261 174 179 191 199 196 195 183 188 196 186 184 182 181 176 177 179 179 182 181 183 180 177 177 179 181 185 172 159 97 61 42 27 33 48 48
261 257 269 265 260 263 257 256 259 250 250 257 229 273 188 190 200 199 201 200 191 190 190 193 188 185 183 183 184 183 182 181 182 180 183 184 186 185 188 178 145 108 111 108 60 51 56 62 69
296 297 281 285 272 263 258 259 255 253 257 261 247 234 210 206 201 199 202 198 200 196 186 192 192 189 186 185 185 184 184 181 179 181 185 188 189 192 190 151 132 142 216 318 36 82 81 83 82
285 285 276 257 255 260 271 260 250 253 254 250 241 227 224 214 203 208 204 199 198 198 194 189 192 189 188 187 183 184 183 179 183 183 184 186 191 182 148 162 179 195 220 111 89 81 92 100 98
279 271 266 251 244 242 233 261 252 239 243 243 245 226 227 216 208 210 206 206 202 198 189 192 189 188 187 187 182 183 183 183 184 180 179 177 183 183 197 196 217 218 197 152 116 109 110 118 117
241 262 266 275 239 250 230 256 254 258 257 241 242 242 221 222 215 207 205 203 203 199 191 190 193 188 186 184 179 180 181 174 151 151 157 167 186 194 198 204 212 201 146 117 113 114 118 124 125
303 286 275 268 265 272 262 268 256 245 247 253 242 242 236 214 215 206 205 197 200 198 194 192 193 191 184 177 173 174 163 165 176 176 166 177 190 194 200 196 189 160 149 134 128 126 137 130 131
289 285 281 278 289 304 288 284 280 284 288 288 257 236 244 216 216 200 197 197 196 197 191 194 190 192 181 176 165 166 171 170 173 175 178 182 186 188 188 180 161 141 141 136 130 115 121 120 133
288 281 278 278 261 267 282 273 260 257 263 259 267 259 247 232 208 186 192 189 194 196 189 191 190 188 181 176 175 175 165 165 174 177 180 184 184 182 177 171 156 140 129 123 130 153 133 114 172
291 279 278 277 279 274 278 276 269 254 260 258 247 256 264 273 207 198 195 190 193 195 193 187 189 185 180 176 170 156 165 163 167 169 170 169 173 171 165 153 142 135 126 112 106 105 134 125 83
291 297 300 278 276 270 272 282 276 262 245 239 239 242 248 251 253 191 193 202 196 198 194 189 184 184 183 180 175 180 174 166 177 169 167 156 155 148 140 135 128 114 101 96 95 97 97 110 115
283 296 289 281 276 279 256 268 289 238 245 247 231 228 237 236 245 184 200 199 200 195 190 188 183 182 186 183 188 184 171 165 157 164 161 155 146 140 134 126 115 105 96 87 84 90 92 96 96
280 284 283 272 261 255 256 240 277 250 258 261 254 241 228 225 222 192 192 202 198 191 187 189 179 182 181 191 192 182 183 178 166 166 157 149 140 132 124 117 111 105 101 97 89 87 88 87 84
244 283 287 245 219 255 251 229 243 274 265 261 253 249 239 225 216 199 187 195 188 184 184 185 175 170 176 179 183 184 191 186 170 159 155 144 136 129 121 115 111 110 112 115 109 97 90 87 86
298 248 264 294 291 311 306 249 245 246 277 302 292 278 282 226 217 194 183 181 178 171 163 163 161 160 174 186 189 191 188 174 155 157 149 145 137 128 121 117 121 127 125 113 106 98 91 86 82
322 242 233 276 257 263 240 266 282 267 260 317 306 298 279 266 219 184 178 175 172 163 161 164 159 161 177 180 177 167 160 150 149 149 146 138 129 123 126 126 132 128 121 114 110 100 92 89 82
223 350 275 227 286 304 278 250 258 358 320 307 303 296 284 271 228 175 177 173 171 155 149 159 158 149 152 153 146 140 143 148 148 143 134 130 131 127 125 133 132 127 119 114 107 98 93 89 84
286 261 239 259 267 289 316 321 355 330 323 302 300 298 292 271 189 155 150 145 155 137 133 130 136 133 128 132 132 136 141 142 136 130 130 130 127 137 139 140 136 126 120 114 111 106 99 94 89
247 279 286 283 285 280 273 277 359 334 323 302 303 310 306 184 121 116 115 119 126 122 123 122 123 120 125 131 133 134 133 137 132 128 131 130 141 140 137 139 136 126 121 120 113 108 103 96 83